Weather History for KWDR - November, 2012

Change the Weather History Date:

Saturday, November 24, 2012

  Actual Average Record
Temperature  
Mean Temperature 45 °F -  
Max Temperature 53 °F 60 °F 77 °F (2014)
Min Temperature 35 °F 37 °F 13 °F (1970)
Degree Days  
Heating Degree Days 20    
Moisture  
Dew Point 27 °F    
Average Humidity 51    
Maximum Humidity 81    
Minimum Humidity 26    
Precipitation  
Precipitation 0.00 in - - ()
Sea Level Pressure  
Sea Level Pressure 30.12 in    
Wind  
Wind Speed 8 mph (WNW)    
Max Wind Speed 15 mph    
Max Gust Speed 21 mph    
Visibility 10 miles    
Events      
Averages and records for this station are not official NWS values.
T = Trace of Precipitation, MM = Missing Value Source: NWS Daily Summary

Daily Weather History Graph

Daily Weather History Graph

Search for Another Location

Airport or City:

Trip Planner

Search our weather history database for the weather conditions in past years. The results will help you decide how hot, cold, wet, or windy it might be!

Date:

Astronomy

Nov. 24, 2012 Rise Set
Actual Time 7:16 AM EST 5:26 PM EST
Civil Twilight 6:48 AM EST 5:53 PM EST
Nautical Twilight 6:18 AM EST 6:24 PM EST
Astronomical Twilight 5:48 AM EST 6:54 PM EST
Moon 3:04 PM EST (11/24) 3:39 AM EST (11/24)
Length of Visible Light 11h 04m
Length of Day
10h 10m
Waxing Gibbous, 87% of the Moon is Illuminated
Nov 24
Waxing Gibbous
Nov 28
Full
Dec 6
Last Quarter
Dec 13
New
Dec 20
First Quarter

Hourly Weather History & Observations

Time (EST) Temp. Windchill Dew Point Humidity Pressure Visibility Wind Dir Wind Speed Gust Speed Precip Events Conditions
12:15 AM 50.0 °F - 35.6 °F 58% 30.09 in 10.0 mi NW 5.8 mph - N/A   Clear
12:35 AM 48.2 °F - 35.6 °F 62% 30.09 in 10.0 mi WNW 6.9 mph - N/A   Clear
12:55 AM 48.2 °F - 35.6 °F 62% 30.09 in 10.0 mi NW 6.9 mph - N/A   Clear
1:15 AM 46.4 °F 42.9 °F 33.8 °F 62% 30.09 in 10.0 mi NW 6.9 mph - N/A   Clear
1:35 AM 46.4 °F 42.4 °F 33.8 °F 62% 30.09 in 10.0 mi NW 8.1 mph - N/A   Clear
1:55 AM 46.4 °F 43.5 °F 33.8 °F 62% 30.09 in 10.0 mi NW 5.8 mph - N/A   Clear
2:15 AM 44.6 °F 43.1 °F 33.8 °F 66% 30.09 in 10.0 mi NW 3.5 mph - N/A   Clear
2:35 AM 44.6 °F 41.4 °F 33.8 °F 66% 30.09 in 10.0 mi NW 5.8 mph - N/A   Clear
2:55 AM 44.6 °F 41.4 °F 33.8 °F 66% 30.09 in 10.0 mi NNW 5.8 mph - N/A   Clear
3:15 AM 44.6 °F 40.7 °F 32.0 °F 61% 30.09 in 10.0 mi NW 6.9 mph - N/A   Clear
3:35 AM 44.6 °F 41.4 °F 32.0 °F 61% 30.09 in 10.0 mi NW 5.8 mph - N/A   Clear
3:55 AM 42.8 °F 40.1 °F 32.0 °F 66% 30.09 in 10.0 mi NW 4.6 mph - N/A   Clear
4:15 AM 42.8 °F 40.1 °F 32.0 °F 66% 30.09 in 10.0 mi West 4.6 mph - N/A   Clear
4:35 AM 41.0 °F 37.1 °F 32.0 °F 70% 30.09 in 10.0 mi WNW 5.8 mph - N/A   Clear
4:55 AM 41.0 °F 37.1 °F 32.0 °F 70% 30.10 in 10.0 mi WNW 5.8 mph - N/A   Clear
5:15 AM 39.2 °F 35.0 °F 32.0 °F 75% 30.10 in 10.0 mi WNW 5.8 mph - N/A   Clear
5:35 AM 39.2 °F 34.2 °F 32.0 °F 75% 30.10 in 10.0 mi West 6.9 mph - N/A   Clear
5:55 AM 41.0 °F 35.8 °F 32.0 °F 70% 30.10 in 10.0 mi WNW 8.1 mph - N/A   Clear
6:15 AM 39.2 °F 34.2 °F 32.0 °F 75% 30.11 in 10.0 mi WNW 6.9 mph - N/A   Clear
6:35 AM 41.0 °F 36.4 °F 32.0 °F 70% 30.12 in 10.0 mi NW 6.9 mph - N/A   Clear
6:55 AM 39.2 °F 34.2 °F 32.0 °F 75% 30.12 in 10.0 mi WNW 6.9 mph - N/A   Clear
7:15 AM 37.4 °F 32.1 °F 32.0 °F 81% 30.13 in 10.0 mi WNW 6.9 mph - N/A   Clear
7:35 AM 37.4 °F 32.8 °F 32.0 °F 81% 30.12 in 10.0 mi WNW 5.8 mph - N/A   Clear
7:55 AM 39.2 °F 33.6 °F 32.0 °F 75% 30.13 in 10.0 mi WNW 8.1 mph - N/A   Clear
8:15 AM 41.0 °F 34.7 °F 32.0 °F 70% 30.14 in 10.0 mi NW 10.4 mph - N/A   Clear
8:35 AM 42.8 °F 36.6 °F 32.0 °F 66% 30.15 in 10.0 mi NW 11.5 mph - N/A   Clear
8:55 AM 42.8 °F 35.8 °F 32.0 °F 66% 30.15 in 10.0 mi NW 13.8 mph - N/A   Clear
9:15 AM 42.8 °F 37.0 °F 32.0 °F 66% 30.15 in 10.0 mi WNW 10.4 mph 16.1 mph N/A   Clear
9:35 AM 44.6 °F 39.7 °F 32.0 °F 61% 30.16 in 10.0 mi WNW 9.2 mph 17.3 mph N/A   Clear
9:55 AM 46.4 °F 41.1 °F 30.2 °F 53% 30.16 in 10.0 mi WNW 11.5 mph - N/A   Clear
10:15 AM 46.4 °F 40.7 °F 28.4 °F 50% 30.17 in 10.0 mi WNW 12.7 mph 16.1 mph N/A   Clear
10:35 AM 48.2 °F - 26.6 °F 43% 30.17 in 10.0 mi NW 11.5 mph 17.3 mph N/A   Clear
10:55 AM 50.0 °F - 26.6 °F 40% 30.16 in 10.0 mi NW 9.2 mph 17.3 mph N/A   Clear
11:15 AM 50.0 °F - 24.8 °F 37% 30.16 in 10.0 mi WNW 11.5 mph 17.3 mph N/A   Clear
11:35 AM 50.0 °F - 23.0 °F 35% 30.16 in 10.0 mi WNW 12.7 mph - N/A   Clear
11:55 AM 50.0 °F - 23.0 °F 35% 30.15 in 10.0 mi WNW 6.9 mph - N/A   Clear
12:15 PM 51.8 °F - 23.0 °F 33% 30.14 in 10.0 mi WNW 12.7 mph 16.1 mph N/A   Clear
12:35 PM 51.8 °F - 23.0 °F 33% 30.13 in 10.0 mi West 10.4 mph 16.1 mph N/A   Clear
12:55 PM 51.8 °F - 21.2 °F 30% 30.12 in 10.0 mi NW 11.5 mph 17.3 mph N/A   Clear
1:15 PM 53.6 °F - 21.2 °F 28% 30.12 in 10.0 mi WNW 12.7 mph 17.3 mph N/A   Clear
1:35 PM 53.6 °F - 21.2 °F 28% 30.11 in 10.0 mi West 10.4 mph 18.4 mph N/A   Clear
1:55 PM 53.6 °F - 21.2 °F 28% 30.11 in 10.0 mi WNW 10.4 mph 19.6 mph N/A   Clear
2:15 PM 53.6 °F - 21.2 °F 28% 30.10 in 10.0 mi NW 13.8 mph 19.6 mph N/A   Clear
2:35 PM 53.6 °F - 19.4 °F 26% 30.10 in 10.0 mi NW 15.0 mph 20.7 mph N/A   Clear
2:55 PM 53.6 °F - 21.2 °F 28% 30.10 in 10.0 mi WNW 13.8 mph 18.4 mph N/A   Clear
3:15 PM 51.8 °F - 21.2 °F 30% 30.10 in 10.0 mi NW 13.8 mph 19.6 mph N/A   Clear
3:35 PM 51.8 °F - 21.2 °F 30% 30.10 in 10.0 mi WNW 12.7 mph - N/A   Clear
3:55 PM 51.8 °F - 21.2 °F 30% 30.10 in 10.0 mi WNW 9.2 mph 16.1 mph N/A   Clear
4:15 PM 51.8 °F - 21.2 °F 30% 30.10 in 10.0 mi WNW 9.2 mph - N/A   Clear
4:35 PM 51.8 °F - 21.2 °F 30% 30.10 in 10.0 mi WNW 11.5 mph - N/A   Clear
4:55 PM 50.0 °F - 21.2 °F 32% 30.11 in 10.0 mi WNW 10.4 mph - N/A   Clear
5:15 PM 48.2 °F - 21.2 °F 34% 30.11 in 10.0 mi WNW 11.5 mph - N/A   Clear
5:35 PM 48.2 °F - 21.2 °F 34% 30.11 in 10.0 mi WNW 8.1 mph 17.3 mph N/A   Clear
5:55 PM 46.4 °F 42.4 °F 21.2 °F 37% 30.13 in 10.0 mi WNW 8.1 mph - N/A   Clear
6:15 PM 46.4 °F 42.4 °F 21.2 °F 37% 30.13 in 10.0 mi NW 8.1 mph 17.3 mph N/A   Clear
6:35 PM 44.6 °F 39.7 °F 21.2 °F 39% 30.14 in 10.0 mi WNW 9.2 mph 17.3 mph N/A   Clear
6:55 PM 44.6 °F 40.2 °F 21.2 °F 39% 30.14 in 10.0 mi WNW 8.1 mph - N/A   Clear
7:15 PM 42.8 °F 37.0 °F 21.2 °F 42% 30.14 in 10.0 mi WNW 10.4 mph - N/A   Clear
7:35 PM 42.8 °F 37.5 °F 21.2 °F 42% 30.14 in 10.0 mi WNW 9.2 mph - N/A   Clear
7:55 PM 42.8 °F 37.0 °F 21.2 °F 42% 30.15 in 10.0 mi NW 10.4 mph 17.3 mph N/A   Clear
8:15 PM 42.8 °F 37.0 °F 21.2 °F 42% 30.15 in 10.0 mi WNW 10.4 mph - N/A   Clear
8:35 PM 41.0 °F 35.2 °F 23.0 °F 49% 30.15 in 10.0 mi WNW 9.2 mph - N/A   Clear
8:55 PM 41.0 °F 34.7 °F 23.0 °F 49% 30.15 in 10.0 mi NW 10.4 mph - N/A   Clear
9:15 PM 41.0 °F 35.2 °F 23.0 °F 49% 30.15 in 10.0 mi NW 9.2 mph - N/A   Clear
9:35 PM 41.0 °F 34.7 °F 23.0 °F 49% 30.15 in 10.0 mi NW 10.4 mph - N/A   Clear
9:55 PM 41.0 °F 34.7 °F 23.0 °F 49% 30.15 in 10.0 mi NW 10.4 mph - N/A   Clear
10:15 PM 41.0 °F 35.8 °F 23.0 °F 49% 30.15 in 10.0 mi NW 8.1 mph - N/A   Clear
10:35 PM 39.2 °F 33.6 °F 23.0 °F 52% 30.15 in 10.0 mi NW 8.1 mph - N/A   Clear
10:55 PM 37.4 °F 32.8 °F 23.0 °F 56% 30.15 in 10.0 mi WNW 5.8 mph - N/A   Clear
11:15 PM 37.4 °F 32.8 °F 23.0 °F 56% 30.15 in 10.0 mi NW 5.8 mph - N/A   Clear
11:35 PM 37.4 °F 32.8 °F 23.0 °F 56% 30.15 in 10.0 mi NW 5.8 mph - N/A   Clear
11:55 PM 35.6 °F 31.7 °F 23.0 °F 60% 30.15 in 10.0 mi WNW 4.6 mph - N/A   Clear